Miscellaneous Local Product
Issued by NWS Hastings, NE

Home | Current Version | Previous Version | Text Only | Print | Product List | Glossary Off
Versions: 1 2 3 4 5 6 7 8 9 10 11 12 13 14 15 16 17 18 19 20 21 22 23 24 25 26 27 28 29 30 31 32 33 34 35 36 37 38 39 40 41 42 43 44 45 46 47 48 49 50

000
AXUS43 KGID 230702
MISGRI

GID CWA HOURLY WEATHER ROUNDUP
NATIONAL WEATHER SERVICE HASTINGS NE
100 AM CST SUN NOV 23 2014

NOTE: "FAIR" INDICATES FEW OR NO CLOUDS BELOW 12,000 FEET WITH NO
SIGNIFICANT WEATHER AND/OR OBSTRUCTIONS TO VISIBILITY.

...SOUTH CENTRAL NEBRASKA...

CITY           SKY/WX    TMP DP  RH WIND       PRES   REMARKS
GRAND ISLAND   CLOUDY    52  49  89 SW7       29.50F
HASTINGS       CLOUDY    54  48  80 S9        29.49F
KEARNEY        CLOUDY    50  46  87 SW7       29.52F
ORD            CLOUDY    41  33  73 CALM      29.46F
YORK           CLOUDY    54  50  87 S13       29.50F
AURORA         CLOUDY    54  51  90 SW12      29.49F
LEXINGTON      CLOUDY    45  35  67 S7        29.48F
HOLDREGE       CLOUDY    51  47  87 SW3       29.51S
HEBRON         CLOUDY    56  50  79 S14G20    29.54S

...NEBRASKA PANHANDLE...

CITY           SKY/WX    TMP DP  RH WIND       PRES   REMARKS
CHADRON        CLOUDY    40  30  67 NW22G33   29.56R WCI  30
ALLIANCE       MOCLDY    42  31  64 NW21G28   29.54R
SCOTTSBLUFF    CLOUDY    44  32  62 N26G41    29.56R
SIDNEY         CLOUDY    45  27  49 NW10      29.55R

...WESTERN AND NORTH CENTRAL NEBRASKA...

CITY           SKY/WX    TMP DP  RH WIND       PRES   REMARKS
VALENTINE      PTCLDY    39  36  89 CALM      29.44R
AINSWORTH      MOCLDY    42  36  79 SW7       29.43F
ONEILL         CLOUDY    50  36  58 CALM      29.43F
BROKEN BOW     CLOUDY    40  29  64 CALM      29.47F
IMPERIAL       CLOUDY    42  18  37 NW6       29.51S
NORTH PLATTE   CLOUDY    39  27  62 CALM      29.49F
MCCOOK         CLOUDY    47  35  63 SE10      29.46F

...EASTERN NEBRASKA...

CITY           SKY/WX    TMP DP  RH WIND       PRES   REMARKS
NORFOLK        CLOUDY    52  50  93 W9        29.48S FOG
SO SIOUX CITY  CLOUDY    53  49  86 SE8       29.49F
TEKAMAH        CLOUDY    54  51  90 S12       29.51F
COLUMBUS       CLOUDY    54  48  82 S10       29.51F
ALBION         CLOUDY    48  46  93 SW6       29.50F FOG
OMAHA EPPLEY   CLOUDY    53  52  96 S15       29.54F
OFFUTT AFB     CLOUDY    54  52  94 SE13      29.53F
MILLARD        CLOUDY    55  52  89 SE12      29.54F
LINCOLN        CLOUDY    56  51  84 S10       29.53F
NEBRASKA CITY  CLOUDY    54  53  97 S16       29.58F
BEATRICE       CLOUDY    56  51  82 S15G25    29.56F
FALLS CITY     CLOUDY    55  51  86 S10       29.60F

...NORTHERN KANSAS...

CITY           SKY/WX    TMP DP  RH WIND       PRES   REMARKS
GOODLAND       CLOUDY    42  24  49 E9        29.47F
HILL CITY      CLOUDY    52  48  86 S7        29.48F
NORTON         CLOUDY    50  45  81 W3        29.49R
PHILLIPSBURG   CLOUDY    55  50  82 S5        29.49F
SMITH CENTER   CLOUDY    54  48  82 S14       29.52F
BELOIT         CLOUDY    55  50  82 S10       29.52F
HAYS           CLOUDY    54  45  71 S22G31    29.49F
RUSSELL        CLOUDY    54  49  83 S24       29.49F
CONCORDIA      CLOUDY    55  51  86 S18G31    29.52F
SALINA         CLOUDY    56  51  84 S20G26    29.55F
TOPEKA         CLOUDY    57  53  86 S6        29.63F



USA.gov is the U.S. government's official web portal to all federal, state and local government web resources and services.